Time,TemperatureF,DewpointF,PressureIn,WindDirection,WindDirectionDegrees,WindSpeedMPH,WindSpeedGustMPH,Humidity,HourlyPrecipIn,Conditions,Clouds,dailyrainin,SoftwareType,DateUTC
2013-09-27 00:23:00,79.0,-99.9,-100.00,ENE,72,3.0,-999.0,-999,-99.99,,,-99.99,,2013-09-27 05:23:00,
2013-09-27 00:52:00,79.0,-99.9,-100.00,South,191,4.0,-999.0,-999,-99.99,,,-99.99,,2013-09-27 05:52:00,
2013-09-27 01:22:00,78.0,72.0,29.54,ESE,106,0.0,-999.0,82,0.00,,,0.00,,2013-09-27 06:22:00,
2013-09-27 01:52:00,78.0,72.0,29.54,ENE,65,3.0,-999.0,83,0.00,,,0.00,,2013-09-27 06:52:00,
2013-09-27 02:22:00,77.0,71.0,29.54,SSE,159,2.0,-999.0,83,0.00,,,0.00,,2013-09-27 07:22:00,
2013-09-27 02:53:00,77.0,72.0,29.54,East,87,0.0,-999.0,84,0.00,,,0.00,,2013-09-27 07:53:00,
2013-09-27 03:22:00,77.0,72.0,29.53,SE,125,0.0,-999.0,85,0.00,,,0.00,,2013-09-27 08:22:00,
2013-09-27 03:53:00,76.0,-99.9,-100.00,SE,138,0.0,-999.0,-999,0.00,,,-99.99,,2013-09-27 08:53:00,
2013-09-27 04:22:00,76.0,72.0,29.52,SE,138,0.0,-999.0,87,0.00,,,0.00,,2013-09-27 09:22:00,
2013-09-27 04:54:00,75.0,-99.9,-100.00,SE,138,0.0,-999.0,-999,-99.99,,,-99.99,,2013-09-27 09:54:00,
2013-09-27 05:23:00,75.0,72.0,29.52,ESE,113,3.0,-999.0,89,0.00,,,0.00,,2013-09-27 10:23:00,
2013-09-27 05:52:00,76.0,73.0,29.52,SSE,155,0.0,-999.0,89,0.00,,,0.00,,2013-09-27 10:52:00,
2013-09-27 06:22:00,76.0,73.0,29.53,SSE,154,0.0,-999.0,89,0.00,,,0.00,,2013-09-27 11:22:00,
2013-09-27 06:52:00,76.0,73.0,29.54,SSE,154,0.0,-999.0,90,0.00,,,0.00,,2013-09-27 11:52:00,
2013-09-27 07:21:00,76.0,73.0,29.54,SSE,154,0.0,-999.0,90,0.00,,,0.00,,2013-09-27 12:21:00,
2013-09-27 07:52:00,76.0,73.0,29.54,South,189,0.0,-999.0,89,0.00,,,0.00,,2013-09-27 12:52:00,
2013-09-27 08:22:00,76.0,73.0,29.55,SE,144,2.0,-999.0,89,0.00,,,0.00,,2013-09-27 13:22:00,
2013-09-27 08:53:00,76.0,73.0,29.55,SSE,165,0.0,-999.0,89,0.00,,,0.00,,2013-09-27 13:53:00,
2013-09-27 09:22:00,77.0,73.0,29.56,South,180,0.0,-999.0,88,0.00,,,0.00,,2013-09-27 14:22:00,
2013-09-27 09:52:00,77.0,73.0,29.57,East,84,0.0,-999.0,88,0.00,,,0.00,,2013-09-27 14:52:00,
2013-09-27 10:21:00,79.0,73.0,29.57,South,178,0.0,-999.0,83,0.00,,,0.00,,2013-09-27 15:21:00,
2013-09-27 10:54:00,80.0,74.0,29.57,SE,144,3.0,-999.0,81,0.00,,,0.00,,2013-09-27 15:54:00,
2013-09-27 11:24:00,81.0,73.0,29.57,SE,136,1.0,-999.0,76,0.00,,,0.00,,2013-09-27 16:24:00,
2013-09-27 11:53:00,83.0,74.0,29.57,ENE,78,4.0,-999.0,74,0.00,,,0.00,,2013-09-27 16:53:00,
2013-09-27 12:23:00,82.0,73.0,29.57,SSE,165,1.0,-999.0,75,0.00,,,0.00,,2013-09-27 17:23:00,
2013-09-27 12:52:00,81.0,74.0,29.56,SE,126,2.0,-999.0,80,0.00,,,0.00,,2013-09-27 17:52:00,
2013-09-27 13:13:00,82.0,74.0,29.55,South,184,0.0,-999.0,77,0.00,,,0.00,,2013-09-27 18:13:00,
2013-09-27 13:21:00,82.0,73.0,29.55,SE,126,2.0,-999.0,75,0.00,,,0.00,,2013-09-27 18:21:00,
2013-09-27 13:52:00,83.0,74.0,29.54,SE,124,2.0,-999.0,75,0.00,,,0.00,,2013-09-27 18:52:00,
2013-09-27 14:22:00,84.0,74.0,29.52,SSE,166,1.0,-999.0,72,0.00,,,0.00,,2013-09-27 19:22:00,
2013-09-27 14:53:00,85.0,74.0,29.51,SSE,165,3.0,-999.0,69,0.00,,,0.00,,2013-09-27 19:53:00,
2013-09-27 15:22:00,87.0,74.0,29.49,ENE,58,5.0,-999.0,66,0.00,,,0.00,,2013-09-27 20:22:00,
2013-09-27 15:52:00,89.0,74.0,29.48,NE,54,1.0,-999.0,62,0.00,,,0.00,,2013-09-27 20:52:00,
2013-09-27 16:02:00,89.0,74.0,29.48,NE,54,1.0,-999.0,62,0.00,,,0.00,,2013-09-27 21:02:00,
2013-09-27 16:21:00,88.0,73.0,29.48,East,100,3.0,-999.0,62,0.00,,,0.00,,2013-09-27 21:21:00,
2013-09-27 16:54:00,88.0,74.0,29.49,ESE,107,1.0,-999.0,64,0.00,,,0.00,,2013-09-27 21:54:00,
2013-09-27 17:24:00,82.0,76.0,29.50,South,186,0.0,-999.0,82,0.04,,,0.04,,2013-09-27 22:24:00,
2013-09-27 17:53:00,81.0,76.0,29.49,SE,140,0.0,-999.0,86,0.00,,,0.04,,2013-09-27 22:53:00,
2013-09-27 19:22:00,80.0,76.0,29.49,ENE,71,0.0,-999.0,87,0.00,,,0.05,,2013-09-28 00:22:00,
2013-09-27 19:52:00,80.0,75.0,29.49,ENE,69,1.0,-999.0,86,0.00,,,0.05,,2013-09-28 00:52:00,
2013-09-27 20:21:00,79.0,74.0,29.49,East,82,0.0,-999.0,86,0.00,,,0.05,,2013-09-28 01:21:00,
2013-09-27 20:52:00,79.0,74.0,29.49,NE,37,0.0,-999.0,85,0.00,,,0.07,,2013-09-28 01:52:00,
2013-09-27 21:12:00,80.0,75.0,29.49,NE,37,0.0,-999.0,84,0.00,,,0.07,,2013-09-28 02:12:00,
2013-09-27 21:22:00,80.0,75.0,29.49,NE,37,0.0,-999.0,84,0.00,,,0.07,,2013-09-28 02:22:00,
2013-09-27 21:32:00,80.0,75.0,29.49,NE,37,0.0,-999.0,84,0.00,,,0.07,,2013-09-28 02:32:00,